Saint George, UT

2:05 AM MST on February 13, 2016 (GMT -0700)
Saint George Municipal

Weather History for KSGU - May, 2014

Change the Weather History Date:

Saturday, May 10, 2014

  Actual Average (KCDC) Record (KCDC)
Temperature  
Mean Temperature 68 °F 54 °F  
Max Temperature 82 °F 70 °F 87 °F (1960)
Min Temperature 51 °F 38 °F 25 °F (1950)
Degree Days  
Heating Degree Days 0 11  
Month to date heating degree days 124  
Since 1 July heating degree days 6010  
Cooling Degree Days 4 0  
Month to date cooling degree days 0  
Year to date cooling degree days 0  
Growing Degree Days 18 (Base 50)    
Moisture  
Dew Point 30 °F    
Average Humidity 24    
Maximum Humidity 58    
Minimum Humidity 13    
Precipitation  
Precipitation 0.00 in 0.02 in 0.68 in (2014)
Month to date precipitation 0.24  
Year to date precipitation 4.51  
Sea Level Pressure  
Sea Level Pressure 29.72 in    
Wind  
Wind Speed 9 mph (SW)    
Max Wind Speed 36 mph    
Max Gust Speed 55 mph    
Visibility 10 miles    
Events Thunderstorm    
T = Trace of Precipitation, MM = Missing Value Source: NWS Daily Summary

Daily Weather History Graph

Daily Weather History Graph

Search for Another Location

Airport or City:

Trip Planner

Search our weather history database for the weather conditions in past years. The results will help you decide how hot, cold, wet, or windy it might be!

Date:

Astronomy

May. 10, 2014 Rise Set
Actual Time 6:30 AM MDT 8:31 PM MDT
Civil Twilight 6:01 AM MDT 8:59 PM MDT
Nautical Twilight 5:26 AM MDT 9:34 PM MDT
Astronomical Twilight 4:49 AM MDT 10:12 PM MDT
Moon 4:36 PM MDT (5/10) 3:59 AM MDT (5/10)
Length of Visible Light 14h 58m
Length of Day
14h 00m
Waxing Gibbous, 82% of the Moon is Illuminated
May 10
Waxing Gibbous
May 14
Full
May 21
Last Quarter
May 28
New
Jun 5
First Quarter

Hourly Weather History & Observations

Time (MDT) Temp. Dew Point Humidity Pressure Visibility Wind Dir Wind Speed Gust Speed Precip Events Conditions
12:15 AM 71.6 °F 33.8 °F 25% 29.85 in 10.0 mi SSW 5.8 mph 18.4 mph N/A   Clear
12:35 AM 71.6 °F 33.8 °F 25% 29.85 in 10.0 mi SW 13.8 mph - N/A   Clear
12:55 AM 71.6 °F 33.8 °F 25% 29.85 in 10.0 mi SW 10.4 mph 18.4 mph N/A   Clear
1:15 AM 71.6 °F 33.8 °F 25% 29.85 in 10.0 mi SSW 10.4 mph - N/A   Clear
1:35 AM 71.6 °F 33.8 °F 25% 29.84 in 10.0 mi SSW 9.2 mph - N/A   Clear
1:55 AM 71.6 °F 32.0 °F 23% 29.84 in 10.0 mi SW 5.8 mph - N/A   Clear
2:15 AM 69.8 °F 32.0 °F 25% 29.84 in 10.0 mi SSE 5.8 mph - N/A   Clear
2:35 AM 69.8 °F 32.0 °F 25% 29.83 in 10.0 mi SE 5.8 mph - N/A   Clear
2:55 AM 66.2 °F 30.2 °F 26% 29.83 in 10.0 mi ESE 6.9 mph - N/A   Clear
3:15 AM 64.4 °F 30.2 °F 28% 29.83 in 10.0 mi SSE 6.9 mph - N/A   Clear
3:35 AM 64.4 °F 30.2 °F 28% 29.83 in 10.0 mi Calm Calm - N/A   Clear
3:55 AM 62.6 °F 30.2 °F 30% 29.83 in 10.0 mi East 3.5 mph - N/A   Clear
4:15 AM 62.6 °F 30.2 °F 30% 29.83 in 10.0 mi North 5.8 mph - N/A   Clear
4:35 AM 60.8 °F 30.2 °F 31% 29.83 in 10.0 mi North 4.6 mph - N/A   Clear
4:55 AM 60.8 °F 30.2 °F 31% 29.83 in 10.0 mi Calm Calm - N/A   Clear
5:15 AM 59.0 °F 30.2 °F 34% 29.83 in 10.0 mi ENE 3.5 mph - N/A   Clear
5:35 AM 60.8 °F 30.2 °F 31% 29.82 in 10.0 mi SE 3.5 mph - N/A   Clear
5:55 AM 59.0 °F 28.4 °F 31% 29.83 in 10.0 mi South 3.5 mph - N/A   Clear
6:15 AM 59.0 °F 28.4 °F 31% 29.82 in 10.0 mi ESE 6.9 mph - N/A   Clear
6:35 AM 57.2 °F 28.4 °F 33% 29.82 in 10.0 mi ESE 6.9 mph - N/A   Clear
6:55 AM 57.2 °F 28.4 °F 33% 29.83 in 10.0 mi East 4.6 mph - N/A   Clear
7:15 AM 60.8 °F 30.2 °F 31% 29.83 in 10.0 mi NE 4.6 mph - N/A   Clear
7:35 AM 62.6 °F 30.2 °F 30% 29.83 in 10.0 mi Calm Calm - N/A   Clear
7:55 AM 64.4 °F 30.2 °F 28% 29.84 in 10.0 mi North 5.8 mph - N/A   Clear
8:15 AM 64.4 °F 32.0 °F 30% 29.84 in 10.0 mi East 4.6 mph - N/A   Clear
8:35 AM 64.4 °F 32.0 °F 30% 29.85 in 10.0 mi SSE 4.6 mph - N/A   Clear
8:55 AM 64.4 °F 30.2 °F 28% 29.85 in 10.0 mi South 4.6 mph - N/A   Clear
9:15 AM 66.2 °F 32.0 °F 28% 29.85 in 10.0 mi Calm Calm - N/A   Clear
9:35 AM 68.0 °F 32.0 °F 26% 29.84 in 10.0 mi Calm Calm - N/A   Clear
9:55 AM 69.8 °F 32.0 °F 25% 29.83 in 10.0 mi Calm Calm - N/A   Clear
10:15 AM 69.8 °F 32.0 °F 25% 29.82 in 10.0 mi WSW 3.5 mph - N/A   Clear
10:35 AM 71.6 °F 32.0 °F 23% 29.82 in 10.0 mi WNW 4.6 mph - N/A   Clear
10:55 AM 73.4 °F 30.2 °F 20% 29.81 in 10.0 mi Calm Calm - N/A   Clear
11:15 AM 73.4 °F 30.2 °F 20% 29.80 in 10.0 mi West 6.9 mph - N/A   Clear
11:35 AM 73.4 °F 30.2 °F 20% 29.80 in 10.0 mi West 6.9 mph - N/A   Clear
11:55 AM 75.2 °F 30.2 °F 19% 29.78 in 10.0 mi SSW 3.5 mph - N/A   Clear
12:15 PM 75.2 °F 30.2 °F 19% 29.77 in 10.0 mi West 6.9 mph - N/A   Clear
12:35 PM 77.0 °F 30.2 °F 18% 29.76 in 10.0 mi West 3.5 mph - N/A   Clear
12:55 PM 78.8 °F 30.2 °F 17% 29.75 in 10.0 mi NW 5.8 mph - N/A   Partly Cloudy
1:15 PM 78.8 °F 28.4 °F 16% 29.74 in 10.0 mi West 11.5 mph 17.3 mph N/A   Partly Cloudy
1:35 PM 80.6 °F 26.6 °F 14% 29.73 in 10.0 mi West 13.8 mph 17.3 mph N/A   Clear
1:55 PM 80.6 °F 26.6 °F 14% 29.71 in 10.0 mi WNW 6.9 mph 18.4 mph N/A   Clear
2:15 PM 80.6 °F 28.4 °F 15% 29.70 in 10.0 mi WSW 12.7 mph - N/A   Clear
2:35 PM 80.6 °F 28.4 °F 15% 29.68 in 10.0 mi WSW 8.1 mph 17.3 mph N/A   Clear
2:55 PM 80.6 °F 28.4 °F 15% 29.67 in 10.0 mi SW 10.4 mph 20.7 mph N/A   Clear
3:15 PM 82.4 °F 28.4 °F 14% 29.66 in 10.0 mi West 11.5 mph 24.2 mph N/A   Clear
3:35 PM 82.4 °F 28.4 °F 14% 29.64 in 10.0 mi WNW 17.3 mph 23.0 mph N/A   Clear
3:55 PM 82.4 °F 28.4 °F 14% 29.63 in 10.0 mi West 19.6 mph 26.5 mph N/A   Clear
4:15 PM 82.4 °F 28.4 °F 14% 29.61 in 10.0 mi West 16.1 mph 32.2 mph N/A   Clear
4:35 PM 82.4 °F 28.4 °F 14% 29.60 in 10.0 mi West 15.0 mph 24.2 mph N/A   Clear
4:55 PM 82.4 °F 28.4 °F 14% 29.58 in 10.0 mi West 20.7 mph 28.8 mph N/A   Clear
5:15 PM 80.6 °F 28.4 °F 15% 29.57 in 10.0 mi West 19.6 mph 27.6 mph N/A   Clear
5:35 PM 80.6 °F 26.6 °F 14% 29.55 in 10.0 mi WSW 23.0 mph 26.5 mph N/A   Clear
5:55 PM 80.6 °F 26.6 °F 14% 29.54 in 10.0 mi West 19.6 mph 28.8 mph N/A   Clear
6:15 PM 82.4 °F 26.6 °F 13% 29.53 in 10.0 mi West 17.3 mph 25.3 mph N/A   Clear
6:35 PM 80.6 °F 26.6 °F 14% 29.52 in 10.0 mi WSW 11.5 mph - N/A   Clear
6:55 PM 80.6 °F 26.6 °F 14% 29.52 in 10.0 mi West 12.7 mph - N/A   Clear
7:15 PM 80.6 °F 26.6 °F 14% 29.51 in 10.0 mi West 13.8 mph - N/A   Partly Cloudy
7:35 PM 80.6 °F 26.6 °F 14% 29.51 in 10.0 mi West 10.4 mph 19.6 mph N/A   Partly Cloudy
7:55 PM 78.8 °F 26.6 °F 15% 29.50 in 10.0 mi SW 15.0 mph - N/A   Clear
8:15 PM 78.8 °F 28.4 °F 16% 29.49 in 10.0 mi SSW 13.8 mph - N/A   Partly Cloudy
8:35 PM 78.8 °F 28.4 °F 16% 29.48 in 10.0 mi SSW 17.3 mph 20.7 mph N/A   Clear
8:55 PM 77.0 °F 30.2 °F 18% 29.48 in 10.0 mi SSW 17.3 mph - N/A   Scattered Clouds
9:15 PM 77.0 °F 30.2 °F 18% 29.47 in 10.0 mi SW 20.7 mph 32.2 mph N/A   Scattered Clouds
9:35 PM 77.0 °F 30.2 °F 18% 29.47 in 10.0 mi SW 19.6 mph - N/A   Partly Cloudy
9:55 PM 77.0 °F 30.2 °F 18% 29.50 in 10.0 mi SSE 3.5 mph - N/A   Mostly Cloudy
10:15 PM - - N/A% 29.53 in 3.0 mi NE 35.7 mph 55.2 mph N/A   Scattered Clouds
10:35 PM 60.8 °F 33.8 °F 36% 29.59 in 9.0 mi NE 34.5 mph 49.5 mph N/A Thunderstorm Thunderstorm
10:55 PM 59.0 °F 37.4 °F 45% 29.64 in 10.0 mi NE 17.3 mph 26.5 mph N/A   Mostly Cloudy
11:15 PM 55.4 °F 41.0 °F 58% 29.67 in 10.0 mi East 4.6 mph 19.6 mph N/A   Overcast
11:35 PM 55.4 °F 39.2 °F 54% 29.70 in 10.0 mi NE 23.0 mph 32.2 mph N/A   Overcast
11:55 PM 51.8 °F 37.4 °F 58% 29.70 in 10.0 mi NE 20.7 mph 39.1 mph N/A   Mostly Cloudy